Flag for San Marino Weather past 2 weeks in San Marino, San Marino

Now
57 °F

Clear.


Feels Like: N/A
Forecast: 47 / 58 °F
Wind: N/A

Location: Rimini Airport

Current Time: Sep 24, 2014 at 1:02:18 AM

Latest Report: Sep 23, 2014 at 11:45 PM


Visibility: 10 mi

Pressure: 30.07 "Hg

Humidity: 88%

Dew point: 54 °F

Location of San MarinoLocation

Historic Weather in San Marino — Graph

°F

San Marino temperature yesterday

Maximum temperature yesterday: 72 °F (at 1:45 PM)
Minimum temperature yesterday: 55 °F (at 6:45 AM)
Average temperature yesterday: 64 °F

Past Weeks' High & Low Weather Summary

 TemperatureHumidityPressure
High79 °F (Sep 22, 12:15 PM)100% (Sep 9, 5:15 AM)30.09 "Hg (Sep 9, 5:15 AM)
Low55 °F (Sep 13, 5:15 AM)38% (Sep 23, 3:15 PM)29.71 "Hg (Sep 22, 8:45 PM)
Average68 °F87%29.95 "Hg
* Reported Sep 8 11:15 PM — Sep 23 11:45 PM, San Marino, Weather by CustomWeather, © 2014

Note: Actual official high and low records may vary slightly from our data, if they occured in-between our weather recording intervals... More about our weather records

Advertising

San Marino weather history for previous 24 hours

 ConditionsComfort  
Time TempWeatherWind HumidityBarometerVisibility
11:45 PM
Sep 23
57 °FClear.N/A88%30.07 "Hg10 mi
11:15 PM57 °FClear.N/A88%30.07 "Hg10 mi
10:45 PM57 °FClear.N/A88%30.07 "Hg10 mi
10:15 PM59 °FClear.N/A82%30.07 "Hg10 mi
9:45 PM59 °FClear.N/A82%30.07 "Hg10 mi
9:15 PM59 °FClear.N/A82%30.07 "Hg10 mi
8:45 PM59 °FClear.N/A77%30.04 "Hg10 mi
8:15 PM61 °FClear.N/A72%30.04 "Hg10 mi
7:45 PM64 °FSunny.N/A56%30.04 "Hg10 mi
7:15 PM64 °FSunny.N/A60%30.04 "Hg10 mi
6:45 PM68 °FSunny.N/A46%30.04 "Hg10 mi
6:15 PM68 °FSunny.N/A43%30.04 "Hg10 mi
5:45 PM70 °FSunny.N/A38%30.04 "Hg10 mi
5:15 PM70 °FSunny.N/A38%30.04 "Hg10 mi
4:45 PM72 °FSunny.N/A38%30.04 "Hg10 mi
4:15 PM72 °FSunny.N/A38%30.04 "Hg10 mi
3:45 PM72 °FSunny.N/A41%30.04 "Hg10 mi
3:15 PM72 °FSunny.N/A38%30.04 "Hg10 mi
2:45 PM72 °FSunny.N/A44%30.04 "Hg10 mi
2:15 PM72 °FSunny.N/A50%30.04 "Hg10 mi
1:45 PM72 °FSunny.N/A53%30.04 "Hg10 mi
1:15 PM70 °FSunny.N/A53%30.04 "Hg10 mi
12:45 PM70 °FSunny.N/A57%30.04 "Hg10 mi
12:15 PM70 °FSunny.N/A57%30.04 "Hg10 mi
11:45 AM70 °FSunny.N/A57%30.04 "Hg10 mi
11:15 AM70 °FSunny.N/A57%30.04 "Hg10 mi
10:45 AM70 °FSunny.N/A53%30.04 "Hg10 mi
10:15 AM68 °FSunny.N/A73%30.01 "Hg10 mi
9:45 AM66 °FSunny.N/A78%30.04 "Hg10 mi
9:15 AM63 °FSunny.N/A83%30.01 "Hg10 mi
8:45 AM61 °FSunny.N/A94%30.01 "Hg10 mi
8:15 AM59 °FSunny.N/A94%30.01 "Hg10 mi
7:45 AM57 °FClear.N/A94%30.01 "Hg10 mi
7:15 AM57 °FClear.N/A94%29.98 "Hg10 mi
6:45 AM55 °FClear.N/A100%29.98 "Hg10 mi
6:15 AM57 °FClear.N/A94%29.98 "Hg10 mi
5:45 AM57 °FPassing clouds.N/A94%29.98 "HgN/A
5:15 AM57 °FPassing clouds.N/A94%29.98 "HgN/A
4:45 AM59 °FPassing clouds.N/A88%29.98 "HgN/A
4:15 AM61 °FPassing clouds.N/A83%29.98 "HgN/A
3:45 AM61 °FPassing clouds.N/A83%29.98 "HgN/A
3:15 AM61 °FPassing clouds.N/A77%29.98 "HgN/A
2:45 AM63 °FPassing clouds.N/A73%29.98 "HgN/A
2:15 AM63 °FPassing clouds.N/A77%29.95 "HgN/A
1:15 AM64 °FPassing clouds.N/A78%29.92 "HgN/A
Weather by CustomWeather, © 2014

See weather overviewHow to use our weather pages